Weather History for Cozumel, Mexico

Change the Weather History Date:

Wednesday, November 5, 2014

  Actual Average Record
Temperature  
Mean Temperature 70 °F -  
Max Temperature 78 °F 84 °F 89 °F (1996)
Min Temperature 62 °F 74 °F 62 °F (2012)
Cooling Degree Days 5    
Growing Degree Days 20 (Base 50)    
Moisture  
Dew Point 68 °F    
Average Humidity 87    
Maximum Humidity 100    
Minimum Humidity 74    
Precipitation  
Precipitation 0.00 in - - ()
Sea Level Pressure  
Sea Level Pressure 30.04 in    
Wind  
Wind Speed 4 mph ()    
Max Wind Speed 16 mph    
Max Gust Speed -    
Visibility 7.5 miles    
Events      
Averages and records for this station are not official NWS values.
T = Trace of Precipitation, MM = Missing Value Source: Averaged Metar Reports

Daily Weather History Graph

Daily Weather History Graph

Search for Another Location

Airport:

Trip Planner

Search our weather history database for the weather conditions in past years. The results will help you decide how hot, cold, wet, or windy it might be!

Date:

Astronomy

Nov. 05, 2014 Rise Set
Actual Time 5:51 AM CST 5:10 PM CST
Civil Twilight 5:28 AM CST 5:33 PM CST
Nautical Twilight 5:02 AM CST 5:59 PM CST
Astronomical Twilight 4:36 AM CST 6:25 PM CST
Moon 4:26 PM CST (11/5) 4:29 AM CST (11/5)
Length of Visible Light 12h 04m
Length of Day
11h 18m
Waxing Gibbous, 98% of the Moon is Illuminated
Nov 5
Waxing Gibbous
Nov 6
Full
Nov 14
Last Quarter
Nov 22
New
Nov 29
First Quarter

Hourly Weather History & Observations

Time (CST) Temp. Dew Point Humidity Pressure Visibility Wind Dir Wind Speed Gust Speed Precip Events Conditions
12:47 AM 64.4 °F 62.6 °F 94% 30.05 in 7.0 mi Calm Calm - N/A   Partly Cloudy
1:46 AM 64.4 °F 62.6 °F 94% 30.04 in 7.0 mi Calm Calm - N/A   Partly Cloudy
2:42 AM 68.0 °F 64.4 °F 88% 30.07 in 7.0 mi Calm Calm - N/A   Scattered Clouds
3:41 AM 64.4 °F 64.4 °F 100% 30.03 in 7.0 mi Calm Calm - N/A   Scattered Clouds
4:41 AM 62.6 °F 62.6 °F 100% 30.04 in 7.0 mi Calm Calm - N/A   Partly Cloudy
5:45 AM 69.8 °F 68.0 °F 94% 30.04 in 7.0 mi NE 4.6 mph - N/A   Mostly Cloudy
6:45 AM 71.6 °F 68.0 °F 88% 30.07 in 8.0 mi East 5.8 mph - N/A   Mostly Cloudy
7:42 AM 73.4 °F 69.8 °F 88% 30.07 in 8.0 mi East 8.1 mph - N/A   Scattered Clouds
8:45 AM 77.0 °F 69.8 °F 78% 30.11 in 8.0 mi East 13.8 mph - N/A   Scattered Clouds
9:47 AM 78.8 °F 69.8 °F 74% 30.07 in 8.0 mi East 13.8 mph - N/A   Scattered Clouds
10:41 AM 77.0 °F 69.8 °F 78% 30.06 in 8.0 mi East 9.2 mph - N/A   Mostly Cloudy
11:40 AM 77.0 °F 69.8 °F 78% 30.03 in 8.0 mi East 12.7 mph - N/A   Mostly Cloudy
12:49 PM 77.0 °F 69.8 °F 78% 30.02 in 8.0 mi ENE 16.1 mph - N/A   Mostly Cloudy
1:42 PM 77.0 °F 69.8 °F 78% 30.00 in 8.0 mi ENE 13.8 mph - N/A   Mostly Cloudy
2:42 PM 77.0 °F 69.8 °F 78% 30.00 in 8.0 mi East 9.2 mph - N/A   Scattered Clouds
3:51 PM 77.0 °F 69.8 °F 78% 29.98 in 8.0 mi ENE 10.4 mph - N/A   Scattered Clouds
4:49 PM 75.2 °F 69.8 °F 83% 29.99 in 8.0 mi East 5.8 mph - N/A   Scattered Clouds
5:47 PM 71.6 °F 68.0 °F 88% 29.99 in 8.0 mi East 4.6 mph - N/A   Scattered Clouds
6:43 PM 71.6 °F 68.0 °F 88% 30.02 in 7.0 mi East 3.5 mph - N/A   Scattered Clouds
7:47 PM 71.6 °F 68.0 °F 88% 30.04 in 7.0 mi East 4.6 mph - N/A   Partly Cloudy
8:49 PM 69.8 °F 68.0 °F 94% 30.08 in 7.0 mi East 4.6 mph - N/A   Partly Cloudy
9:40 PM 69.8 °F 68.0 °F 94% 30.06 in 7.0 mi East 3.5 mph - N/A   Partly Cloudy
10:43 PM 69.8 °F 68.0 °F 94% 30.05 in 7.0 mi East 4.6 mph - N/A   Partly Cloudy
11:44 PM 68.0 °F 66.2 °F 94% 30.01 in 7.0 mi East 5.8 mph - N/A   Partly Cloudy